COSMOS 2251 DEB

Satellite information

Favourite Embed

Satellite Type and Status

DEBRISIN ORBIT

Key statistics

Satellite COSMOS 2251 DEB at a glance.

Uptime

11869

Days in orbit

Revolutions

≈ 13.7

Per day

Orbit

LEO

Low Earth Orbit

Inclination

74.1

Latest

Satellite identification and parameters

Extended collection of information and parameters for COSMOS 2251 DEB.

Object identification

Identified? True

Debris? True

Object name: COSMOS 2251 DEB

International designator: 1993-036BXF

Object number (NORAD): 47051

Object ID (CCSDS): 47051

Country: COMMONWEALTH OF INDEPENDENT STATES (CIS)

Current information (Y/N): Y

RCS size: SMALL

Orbital parameters

Period: 105.331 minutes

Inclination: 74.1001 deg

SMA: 7388.076 km

Apoapsis: 1261.212 km

Periapsis: 758.67 km

RAAN: 182.6908 deg

Eccentricy: 0.03401033

Argument of periapsis: 296.1774 deg

Mean anomaly: 246.9893 deg

Mean motion: 13.67117141 rev/day

Mean motion (dot): 0.00002391 rev/day2

B* drag term: 0.0019326179 1/REarth

Two-line elements (TLE)

Creation date: Dec. 13, 2025, 5:47 p.m.

Reference frame: TEME

Reference center: EARTH

Epoch: Dec. 13, 2025, 6:55 a.m. UTC

TLE line 0: 0 COSMOS 2251 DEB

TLE line 1: 1 47051U 93036BXF 25347.28881792 .00002391 00000-0 19326-2 0 9992

TLE line 2: 2 47051 74.1001 182.6908 0340103 296.1774 246.9893 13.67117141599458

Live tracking on map

Real-time ground track for satellite COSMOS 2251 DEB.

In-orbit conjunctions

A list of the most updated potential collisions computed for object COSMOS 2251 DEB.

Target Orbit TCA Probability of collision Miss distance Type
NOAA 16 DEB SSO 2025-11-10 11:06:19 0.0001321774 225.0 (m) DEBRIS
THORAD AGENA D DEB SSO 2024-09-26 21:26:41 0.0008771642 21.0 (m) DEBRIS
NOAA 16 DEB SSO 2024-09-26 19:45:29 0.0002631656 236.0 (m) DEBRIS

Associated space launch

Military communications satellite. Destroyed in a collision with Iridium 33.

COSMOS 2251 DEB was lifted into orbit during the mission ‘Kosmos-3M | Strela-2M 51’, on board a Kosmos-3M space rocket.

The launch took place on June 16, 1993, 4:17 a.m. from 132/1 (132L).

For more information about the launch, click the button.

Launch to space Kosmos-3M | Strela-2M 51
Kosmos-3M | Strela-2M 51

Agency: N/A

Status: Launch Successful

Launch date: June 16, 1993, 4:17 a.m. UTC

Rocket: Kosmos-3M

Launch pad: 132/1 (132L)

Location: Plesetsk Cosmodrome, Russian Federation

...

Latest news about this satellite

There are no fresh news available about this satellite. Check back as we update our databases every day.


Newsletter sign-up

Weekly statistics, charts and insights to help you stay on top of the space industry.